[[{"header":{"parameterUnit":"m.s-1","parameterCategory":2,"la1":30.2991,"la2":30.254,"lo1":-89.0895,"lo2":-89.0444,"dy":0.0017,"dx":0.0017,"nx":28,"ny":28,"refTime":"2024-02-01T03:00:00:Z","depth":"0","parameterNumber":2,"parameterNumberName":"U-component_of_CURRENTS"},"data":[0,0,0,0,0,0,0,0,0,0,0,0,0,0,0,0,0,0,0,0,0,0,0,0,0,0,0,0,0,0,0,0,0,0,0,0,0,0,0,0,0,0,0,0,0,0,0,0,0,0,0,0,0,0,0,0,0,0,0.0761,0.0761,0,0.0754,0.0754,0.0754,0.0725,0.0724,0.0723,0.0722,0.0729,0.073,0.0731,0,0,0,0,0,0,0,0,0,0,0,0,0,0.0771,0.0771,0.0761,0.0761,0.0761,0.0754,0.0754,0.0754,0.0725,0.0724,0.0723,0.0722,0.0729,0.073,0.0731,0,0,0,0,0,0,0,0,0,0,0,0,0,0.0766,0.0771,0.0761,0.0745,0.0744,0.0754,0.0754,0.0754,0.0725,0.0724,0.0723,0.0722,0.0729,0.073,0.0731,0.076,0,0,0.0735,0.0736,0,0,0,0,0,0,0,0,0.0766,0.0765,0.0748,0.0746,0.0745,0.0739,0.076,0.0757,0.0725,0.0732,0.0722,0.0721,0.0735,0.0735,0.0736,0.076,0.0761,0.0735,0.0736,0.0736,0.0737,0,0,0,0,0,0,0,0.0766,0.0765,0.0758,0.0748,0.0746,0.0746,0.0744,0.0759,0.074,0.0732,0.0729,0.0729,0.0734,0.0735,0.0736,0.0761,0.0735,0.0736,0.0737,0.0738,0.0892,0.0895,0,0,0,0,0,0,0.0767,0.0766,0.0759,0.0758,0.0753,0.0747,0.0744,0.0742,0.0739,0.0738,0.073,0.0727,0.0734,0.0735,0.0736,0.083,0.0736,0.0738,0.0738,0.0888,0.0892,0.0896,0,0,0,0,0,0,0.0767,0.0766,0.0759,0.0762,0.0761,0.0747,0.0745,0.0742,0.0748,0.0738,0.0736,0.0738,0.0733,0.0735,0.0772,0.0827,0.0738,0.0739,0.0884,0.089,0.0894,0.0978,0,0,0,0,0,0,0.0767,0.0766,0.0776,0.0762,0.0761,0.0783,0.0746,0.0743,0.0749,0.0746,0.0745,0.0744,0.0732,0.0771,0.0774,0.0827,0.074,0.088,0.0887,0.0893,0.0971,0.0985,0.0997,0,0,0,0,0,0.0768,0.0796,0.0777,0.0777,0.0771,0.0784,0.0785,0.0771,0.075,0.0769,0.077,0.0744,0.0813,0.0774,0.0777,0.0832,0.0877,0.0885,0.0892,0.0965,0.0982,0.0997,0,0,0,0,0,0,0.0826,0.0794,0.0774,0.0795,0.0793,0.078,0.0801,0.0781,0.0795,0.0795,0.0775,0.0776,0.0837,0.0828,0.0785,0.09,0.0846,0.0855,0.0901,0.0917,0.093,0.0953,0.0741,0,0,0,0,0,0.0836,0.084,0.0816,0.0839,0.0836,0.0817,0.0822,0.081,0.0814,0.0818,0.0816,0.0833,0.0872,0.0885,0.0913,0.0964,0.1001,0.1008,0.1021,0.1032,0.1057,0.1168,0.1193,0.0921,0.0921,0.0921,0,0,0.087,0.0853,0.0858,0.085,0.0845,0.0861,0.0819,0.0837,0.0862,0.082,0.0865,0.0879,0.0899,0.0965,0.0992,0.0959,0.1133,0.1042,0.1051,0.107,0.1178,0.1205,0.1228,0.0926,0.0925,0.0924,0,0,0.0937,0.0918,0.0938,0.0933,0.0925,0.0912,0.0918,0.0909,0.0919,0.0958,0.0951,0.1001,0.1032,0.1071,0.1092,0.1199,0.1204,0.1206,0.1283,0.139,0.1413,0.1434,0.1523,0.1551,0.1206,0.1206,0.1206,0,0.0987,0.0991,0.0955,0.097,0.0976,0.0937,0.0967,0.0978,0.0988,0.102,0.0988,0.1093,0.1094,0.1203,0.1236,0.123,0.1283,0.1212,0.1407,0.1428,0.1448,0.1535,0.1564,0.1211,0.1211,0.121,0.121,0,0.1054,0.1059,0.1078,0.1071,0.1078,0.1103,0.1094,0.112,0.1117,0.1132,0.1231,0.1248,0.1314,0.1326,0.1307,0.1456,0.1447,0.1412,0.136,0.148,0.1564,0.1594,0.1218,0.1216,0.1215,0.1214,0,0,0.1182,0.1132,0.1141,0.1141,0.1129,0.1145,0.1195,0.124,0.1292,0.132,0.1412,0.148,0.1489,0.1517,0.1515,0.1593,0.1766,0.1562,0.1565,0.1642,0.2007,0.2039,0.2073,0.1763,0.1769,0.1773,0.2011,0,0.1256,0.1272,0.1239,0.1285,0.1296,0.1275,0.1325,0.1363,0.1393,0.1473,0.1525,0.1603,0.1562,0.1597,0.1683,0.1739,0.1847,0.1705,0.1888,0.1894,0.1901,0.2111,0.2115,0.2331,0.2039,0.2044,0.2048,0,0.1352,0.1336,0.1366,0.1368,0.1377,0.1402,0.1469,0.1508,0.1599,0.1631,0.1721,0.1748,0.1877,0.1813,0.2019,0.1929,0.1996,0.2034,0.2043,0.2068,0.1984,0.2166,0.2396,0.2294,0.2093,0.209,0.2086,0,0.1447,0.1449,0.1464,0.1462,0.1454,0.1488,0.1501,0.1568,0.1616,0.1734,0.179,0.1932,0.2005,0.2123,0.219,0.2127,0.2407,0.2326,0.2434,0.2435,0.2476,0.2471,0.2624,0.252,0.252,0.2519,0.2519,0,0.154,0.1562,0.1503,0.1512,0.156,0.1544,0.1623,0.1659,0.1735,0.1808,0.1876,0.1974,0.2087,0.2229,0.2286,0.2474,0.2503,0.252,0.2533,0.2505,0.2501,0.2437,0.2325,0.2528,0.2526,0.2524,0.2523,0,0.163,0.1595,0.1612,0.1594,0.1597,0.1628,0.1652,0.17,0.1773,0.1874,0.1915,0.2057,0.2244,0.2362,0.256,0.2608,0.2713,0.2811,0.2763,0.2768,0.2756,0.2648,0.2733,0.2706,0.3004,0.3007,0.3009,0,0.1658,0.167,0.1656,0.165,0.1634,0.1662,0.1674,0.172,0.1757,0.1915,0.1967,0.2179,0.231,0.2632,0.2791,0.2987,0.2831,0.3081,0.2972,0.2833,0.2721,0.2536,0.2492,0.306,0.3062,0.3065,0.3066,0,0.1692,0.1691,0.1678,0.1671,0.1672,0.1684,0.1701,0.1737,0.1799,0.189,0.2024,0.215,0.2484,0.2696,0.2966,0.3085,0.2952,0.313,0.3022,0.2845,0.2622,0.2574,0.2791,0.3085,0.3083,0.3082,0.3081,0.308,0.1691,0.1691,0.1664,0.1664,0.1664,0.1669,0.1677,0.171,0.1775,0.1879,0.2016,0.2196,0.2525,0.2922,0.305,0.3243,0.3097,0.3181,0.3085,0.2929,0.2838,0.3096,0.3362,0.3362,0.3362,0.3362,0.3362,0,0.1646,0.1642,0.1643,0.1623,0.161,0.1633,0.1655,0.1657,0.1705,0.1847,0.1962,0.2291,0.2578,0.2872,0.3175,0.3162,0.3093,0.3094,0.2829,0.281,0.3115,0.305,0.3217,0.3217,0.3217,0.3217,0.3217,0.3218,0.1605,0.1585,0.1591,0.155,0.1546,0.1522,0.1528,0.1562,0.1644,0.1794,0.1958,0.2117,0.2449,0.2774,0.2945,0.2973,0.2767,0.2701,0.2625,0.28,0.2798,0.2796,0.2713,0.2807,0.2806,0.2306,0.2302,0.2299]},{"header":{"parameterUnit":"m.s-1","parameterCategory":2,"la1":30.2991,"la2":30.254,"lo1":-89.0895,"lo2":-89.0444,"dy":0.0017,"dx":0.0017,"nx":28,"ny":28,"refTime":"2024-02-01T03:00:00:Z","depth":"0","parameterNumber":3,"parameterNumberName":"V-component_of_CURRENTS"},"data":[0,0,0,0,0,0,0,0,0,0,0,0,0,0,0,0,0,0,0,0,0,0,0,0,0,0,0,0,0,0,0,0,0,0,0,0,0,0,0,0,0,0,0,0,0,0,0,0,0,0,0,0,0,0,0,0,0,0,-0.0304,-0.0304,0,-0.0301,-0.0301,-0.0301,-0.0332,-0.0333,-0.0334,-0.0335,-0.0349,-0.0348,-0.0348,0,0,0,0,0,0,0,0,0,0,0,0,0,-0.0296,-0.0296,-0.0304,-0.0304,-0.0304,-0.0301,-0.0301,-0.0301,-0.0332,-0.0333,-0.0334,-0.0335,-0.0349,-0.0348,-0.0348,0,0,0,0,0,0,0,0,0,0,0,0,0,-0.0296,-0.0296,-0.0304,-0.032,-0.0321,-0.0301,-0.0301,-0.0301,-0.0332,-0.0333,-0.0335,-0.0336,-0.0349,-0.0348,-0.0348,-0.0314,0,0,-0.0345,-0.0345,0,0,0,0,0,0,0,0,-0.0296,-0.0296,-0.0317,-0.0319,-0.032,-0.0319,-0.0303,-0.0306,-0.0331,-0.0327,-0.0335,-0.0337,-0.034,-0.034,-0.0335,-0.0315,-0.0315,-0.0345,-0.0345,-0.0344,-0.0344,0,0,0,0,0,0,0,-0.0296,-0.0296,-0.0302,-0.0317,-0.0319,-0.0314,-0.0315,-0.0304,-0.0325,-0.0327,-0.033,-0.0331,-0.0341,-0.0335,-0.0335,-0.0316,-0.0345,-0.0344,-0.0344,-0.0344,-0.0276,-0.0275,0,0,0,0,0,0,-0.0299,-0.0296,-0.0302,-0.0302,-0.0313,-0.0313,-0.0315,-0.0317,-0.0325,-0.0327,-0.0329,-0.0332,-0.0336,-0.0336,-0.0336,-0.0286,-0.0344,-0.0344,-0.0343,-0.0277,-0.0276,-0.0274,0,0,0,0,0,0,-0.0299,-0.0299,-0.0302,-0.03,-0.03,-0.0312,-0.0314,-0.0317,-0.0314,-0.0326,-0.033,-0.0325,-0.0337,-0.0337,-0.0325,-0.0287,-0.0343,-0.0343,-0.0279,-0.0277,-0.0275,-0.0192,0,0,0,0,0,0,-0.0298,-0.0299,-0.0293,-0.03,-0.03,-0.028,-0.0313,-0.0316,-0.0313,-0.0316,-0.0323,-0.0326,-0.0338,-0.0326,-0.0324,-0.0287,-0.0342,-0.0281,-0.0278,-0.0276,-0.0196,-0.0187,-0.018,0,0,0,0,0,-0.0298,-0.0279,-0.0293,-0.0293,-0.0294,-0.0278,-0.0277,-0.029,-0.0311,-0.0296,-0.0309,-0.0326,-0.0309,-0.0324,-0.0322,-0.0284,-0.0282,-0.0279,-0.0276,-0.02,-0.0189,-0.018,0,0,0,0,0,0,-0.0256,-0.0281,-0.0296,-0.0282,-0.0279,-0.0284,-0.0268,-0.0283,-0.028,-0.0288,-0.0309,-0.0311,-0.0286,-0.0297,-0.0313,-0.0259,-0.0297,-0.0294,-0.024,-0.023,-0.0222,-0.0212,-0.0341,0,0,0,0,0,-0.0248,-0.025,-0.0263,-0.0247,-0.0246,-0.0258,-0.0252,-0.0263,-0.0266,-0.0267,-0.0272,-0.0277,-0.0269,-0.0262,-0.0259,-0.0224,-0.0255,-0.02,-0.0191,-0.0184,-0.0175,-0.0205,-0.0198,-0.0265,-0.0265,-0.0265,0,0,-0.0225,-0.0239,-0.0238,-0.024,-0.024,-0.0218,-0.0257,-0.0244,-0.0222,-0.0267,-0.0235,-0.0248,-0.0256,-0.0222,-0.0211,-0.0227,-0.0178,-0.018,-0.0174,-0.0169,-0.0201,-0.0195,-0.0189,-0.0263,-0.0263,-0.0263,0,0,-0.0179,-0.0194,-0.0182,-0.0176,-0.0179,-0.0182,-0.0178,-0.018,-0.018,-0.0154,-0.0183,-0.0175,-0.0158,-0.0154,-0.0152,-0.0094,-0.0138,-0.0092,-0.0033,-0.0061,-0.0056,-0.0053,-0.0073,-0.0072,-0.0082,-0.0082,-0.0082,0,-0.0152,-0.0142,-0.0169,-0.0149,-0.0135,-0.0163,-0.0132,-0.0124,-0.0121,-0.011,-0.0134,-0.0112,-0.0122,-0.0082,-0.0064,-0.0072,-0.0102,-0.0069,-0.0051,-0.0048,-0.0045,-0.0068,-0.0067,-0.0078,-0.0078,-0.0079,-0.0079,0,-0.0103,-0.0087,-0.0071,-0.0063,-0.0047,-0.0022,-0.0023,-0.0004,-0.0013,-0.0011,0.0017,-0.0,0.0012,0.0014,-0.0006,0.0021,-0.0009,-0.0043,-0.0078,-0.0034,-0.006,-0.0061,-0.0071,-0.0073,-0.0074,-0.0075,0,0,-0.0076,-0.0045,-0.0042,-0.0017,-0.0004,0.0018,0.0059,0.0089,0.012,0.0117,0.0156,0.0162,0.0138,0.0138,0.0113,0.0094,0.0089,0.0039,0.0036,0.0018,0.0026,0.0023,0.002,0.0049,0.0049,0.0049,0.0004,0,-0.0033,0.0024,0.0025,0.0094,0.0125,0.0125,0.017,0.0193,0.0204,0.0238,0.0217,0.0241,0.019,0.0196,0.0171,0.011,0.0088,0.0105,-0.0013,-0.0015,-0.0026,0.002,0.0071,0.0036,0.0002,0.0002,0.0002,0,0.0002,0.0036,0.0105,0.017,0.0184,0.0223,0.0283,0.0319,0.0352,0.036,0.037,0.0347,0.0342,0.0279,0.02,0.0208,0.0128,0.007,0.0066,0.0032,-0.0021,-0.0015,0.0035,-0.002,-0.0,-0.0,0.0,0,0.0022,0.0091,0.0149,0.017,0.0238,0.0274,0.031,0.0355,0.0392,0.0433,0.0458,0.044,0.0431,0.0337,0.0227,0.0207,0.0123,0.0077,0.0,-0.0001,0.0006,0.0006,-0.001,0.0011,0.0011,0.0011,0.0011,0,0.0058,0.0107,0.0165,0.0198,0.0273,0.0308,0.0383,0.0419,0.0473,0.0521,0.0515,0.0541,0.0438,0.0381,0.0262,0.0142,0.0147,0.0024,-0.0008,0.0038,0.0041,-0.0038,-0.0103,0.0009,0.001,0.001,0.001,0,0.0068,0.0111,0.0177,0.0253,0.0282,0.0331,0.0417,0.0464,0.052,0.0581,0.0596,0.0611,0.0551,0.0444,0.0304,0.0195,0.0014,0.0023,0.0094,0.0071,-0.0051,-0.0114,-0.0282,-0.0354,-0.006,-0.0061,-0.0061,0,0.0074,0.0107,0.0196,0.0231,0.0266,0.0343,0.0389,0.0471,0.0523,0.0617,0.0644,0.0638,0.0634,0.0463,0.0301,0.0131,0.0003,0.004,0.0012,-0.0032,-0.0127,-0.0245,-0.0301,0.0056,0.0056,0.0057,0.0057,0,0.0066,0.0095,0.0143,0.0218,0.0275,0.0355,0.0434,0.0486,0.0579,0.0644,0.0712,0.0727,0.0627,0.0522,0.0325,0.0189,-0.0023,0.0045,-0.0018,-0.0043,-0.0156,-0.0247,0.0059,0.0063,0.0062,0.0062,0.0062,0.0061,0.0032,0.0063,0.0118,0.0192,0.0263,0.0351,0.0412,0.0495,0.0589,0.07,0.0736,0.0792,0.0708,0.0472,0.0292,0.007,-0.0029,-0.0006,-0.008,-0.0197,-0.0258,0.0066,0.004,0.0039,0.0038,0.0038,0.0037,0,-0.0021,0.0027,0.0086,0.018,0.0249,0.0309,0.0426,0.0488,0.0583,0.0706,0.0784,0.0829,0.0684,0.0502,0.0236,0.0016,-0.0144,-0.0107,-0.0231,-0.0287,0.0016,0.0036,0.003,0.0031,0.0031,0.0031,0.0031,0.0031,-0.0051,-0.0012,0.0037,0.0135,0.0209,0.0305,0.0373,0.0473,0.0581,0.0731,0.0829,0.0908,0.0898,0.0412,0.0054,-0.007,-0.0311,-0.0373,-0.0513,-0.0236,-0.0231,-0.0227,-0.0219,-0.0278,-0.0279,-0.0785,-0.0789,-0.0792]}],[{"header":{"parameterUnit":"m.s-1","parameterCategory":2,"la1":30.2991,"la2":30.254,"lo1":-89.0895,"lo2":-89.0444,"dy":0.0017,"dx":0.0017,"nx":28,"ny":28,"refTime":"2024-02-01T03:00:00:Z","depth":"2","parameterNumber":2,"parameterNumberName":"U-component_of_CURRENTS"},"data":[0,0,0,0,0,0,0,0,0,0,0,0,0,0,0,0,0,0,0,0,0,0,0,0,0,0,0,0,0,0,0,0,0,0,0,0,0,0,0,0,0,0,0,0,0,0,0,0,0,0,0,0,0,0,0,0,0,0,0.0849,0.085,0,0.0894,0.0895,0.0895,0.0899,0.0899,0.0898,0.0898,0.0908,0.0908,0.0909,0,0,0,0,0,0,0,0,0,0,0,0,0,0.074,0.0742,0.0849,0.085,0.085,0.0894,0.0895,0.0895,0.0899,0.0899,0.0898,0.0898,0.0908,0.0908,0.0909,0,0,0,0,0,0,0,0,0,0,0,0,0,0.0785,0.0742,0.0849,0.0859,0.086,0.0894,0.0895,0.0895,0.0899,0.0899,0.0898,0.0898,0.0907,0.0908,0.0909,0.0925,0,0,0.0912,0.0912,0,0,0,0,0,0,0,0,0.0782,0.0789,0.0857,0.0858,0.086,0.0892,0.086,0.0904,0.0899,0.0883,0.0898,0.0897,0.0901,0.0902,0.091,0.0925,0.0925,0.0912,0.0912,0.0913,0.0913,0,0,0,0,0,0,0,0.0779,0.0787,0.0865,0.0857,0.0859,0.0852,0.0858,0.0868,0.0892,0.0884,0.0885,0.0893,0.0901,0.0909,0.091,0.0926,0.0912,0.0912,0.0913,0.0913,0.0972,0.0973,0,0,0,0,0,0,0.0779,0.0784,0.0864,0.0867,0.0821,0.0855,0.0861,0.0881,0.0893,0.0895,0.0893,0.0893,0.0908,0.0909,0.091,0.0962,0.0913,0.0913,0.0914,0.0971,0.0972,0.0973,0,0,0,0,0,0,0.0777,0.0786,0.0862,0.0827,0.0836,0.0858,0.0879,0.0882,0.0895,0.09,0.0901,0.0903,0.0907,0.0909,0.093,0.0961,0.0914,0.0915,0.097,0.0971,0.0973,0.1044,0,0,0,0,0,0,0.0774,0.0786,0.0802,0.0827,0.0838,0.0892,0.088,0.0883,0.0901,0.0901,0.091,0.091,0.0907,0.0929,0.0931,0.0961,0.0915,0.0968,0.097,0.0972,0.1041,0.1048,0.1054,0,0,0,0,0,0.077,0.0796,0.0803,0.0813,0.086,0.0893,0.0898,0.0909,0.0902,0.0917,0.0922,0.091,0.0943,0.0931,0.0933,0.0964,0.0967,0.097,0.0972,0.1037,0.1047,0.1054,0,0,0,0,0,0,0.0767,0.08,0.0808,0.0846,0.0871,0.0894,0.0911,0.0915,0.0931,0.093,0.0925,0.0927,0.0956,0.0948,0.0935,0.0985,0.0952,0.0955,0.1001,0.101,0.1017,0.1023,0.0916,0,0,0,0,0,0.0773,0.0796,0.0828,0.086,0.0873,0.0892,0.0907,0.0916,0.0932,0.0939,0.0945,0.0952,0.0967,0.0978,0.0986,0.1017,0.1023,0.1036,0.1043,0.1049,0.1055,0.1087,0.1098,0.0981,0.0981,0.0981,0,0,0.0781,0.0802,0.0817,0.0859,0.0879,0.0909,0.09,0.0929,0.0955,0.0938,0.0973,0.0976,0.0979,0.1014,0.1026,0.1013,0.109,0.1052,0.1057,0.106,0.1091,0.1102,0.1112,0.0982,0.0982,0.0982,0,0,0.0803,0.0829,0.0852,0.0876,0.091,0.0926,0.0935,0.0965,0.0979,0.1015,0.1008,0.1028,0.1053,0.1065,0.1072,0.112,0.1122,0.1124,0.1173,0.1204,0.1215,0.1223,0.1269,0.1281,0.1133,0.1133,0.1133,0,0.0813,0.0848,0.0865,0.0894,0.0918,0.0934,0.0967,0.099,0.1022,0.1041,0.1034,0.1079,0.1079,0.1123,0.1144,0.1138,0.1162,0.1143,0.1215,0.1224,0.1232,0.1275,0.1288,0.1136,0.1136,0.1136,0.1135,0,0.0845,0.0879,0.0897,0.0939,0.0967,0.0999,0.1033,0.1062,0.108,0.1101,0.1148,0.1156,0.1185,0.1189,0.1186,0.1245,0.1247,0.1218,0.1197,0.1248,0.1291,0.1303,0.1142,0.114,0.1139,0.1138,0,0,0.0854,0.0909,0.0917,0.0939,0.0993,0.1017,0.1071,0.1121,0.1152,0.1189,0.1234,0.1268,0.1275,0.1284,0.1283,0.131,0.1392,0.1299,0.1299,0.1349,0.1486,0.143,0.1438,0.1383,0.1385,0.1386,0.1502,0,0.0876,0.0928,0.0956,0.101,0.1038,0.1077,0.1123,0.117,0.1207,0.1254,0.128,0.1319,0.1312,0.1332,0.1365,0.1377,0.1424,0.1365,0.1423,0.1425,0.1373,0.1449,0.1182,0.1256,0.1513,0.1515,0.1517,0,0.0893,0.0926,0.098,0.1039,0.1056,0.1096,0.1166,0.121,0.128,0.1312,0.1366,0.1385,0.1448,0.1419,0.1502,0.1471,0.1496,0.1502,0.1505,0.1434,0.1391,0.1241,0.1268,0.1536,0.1535,0.1533,0.1532,0,0.0869,0.0941,0.0982,0.1004,0.1076,0.1114,0.1159,0.1229,0.1265,0.1354,0.1389,0.1463,0.1499,0.1547,0.1582,0.1555,0.166,0.1617,0.1597,0.1594,0.1366,0.1339,0.1684,0.1684,0.1683,0.1683,0.1683,0,0.0868,0.0901,0.0976,0.0995,0.1046,0.1106,0.1165,0.122,0.1295,0.1342,0.1418,0.1462,0.1532,0.1595,0.1622,0.166,0.1705,0.1628,0.1624,0.1385,0.136,0.1587,0.1574,0.1687,0.1687,0.1686,0.1685,0,0.0825,0.0878,0.0921,0.1004,0.1033,0.1067,0.1157,0.1198,0.1281,0.1346,0.138,0.1482,0.1578,0.1645,0.1723,0.17,0.174,0.1741,0.1469,0.143,0.1648,0.1638,0.1737,0.1736,0.1735,0.1734,0.1734,0,0.0801,0.0822,0.0909,0.0939,0.0978,0.1043,0.1089,0.1179,0.1221,0.1347,0.1371,0.1494,0.155,0.1659,0.1614,0.166,0.1769,0.1483,0.1371,0.167,0.1656,0.1647,0.1638,0.111,0.1104,0.1099,0.1096,0,0.0753,0.0793,0.0834,0.09,0.0952,0.1004,0.1076,0.1099,0.1208,0.1267,0.1358,0.1414,0.1464,0.1388,0.1438,0.1408,0.145,0.1392,0.1775,0.1137,0.1087,0.1071,0.1081,0.1055,0.1059,0.1062,0.1064,0.1066,0.0724,0.0745,0.0817,0.0872,0.0924,0.0974,0.1005,0.1067,0.1125,0.1187,0.126,0.1266,0.1166,0.1104,0.1115,0.1126,0.1203,0.1139,0.115,0.1166,0.1072,0.1023,0.0963,0.0966,0.0969,0.0972,0.0974,0,0.0709,0.0758,0.0793,0.0868,0.09,0.0955,0.1008,0.1013,0.1058,0.1069,0.1111,0.0873,0.0792,0.0834,0.074,0.0729,0.067,0.0756,0.066,0.0694,0.0727,0.061,0.038,0.0381,0.0381,0.0381,0,0,0.0718,0.076,0.0783,0.0837,0.089,0.0934,0.0959,0.0947,0.0931,0.0861,0.0805,0.0723,0.0705,0.0516,0.0457,0.0473,0.06,0.0428,0.0863,0.0778,0.0813,0.0862,0.071,0,0,0,0,0]},{"header":{"parameterUnit":"m.s-1","parameterCategory":2,"la1":30.2991,"la2":30.254,"lo1":-89.0895,"lo2":-89.0444,"dy":0.0017,"dx":0.0017,"nx":28,"ny":28,"refTime":"2024-02-01T03:00:00:Z","depth":"2","parameterNumber":3,"parameterNumberName":"V-component_of_CURRENTS"},"data":[0,0,0,0,0,0,0,0,0,0,0,0,0,0,0,0,0,0,0,0,0,0,0,0,0,0,0,0,0,0,0,0,0,0,0,0,0,0,0,0,0,0,0,0,0,0,0,0,0,0,0,0,0,0,0,0,0,0,-0.0215,-0.0215,0,-0.0262,-0.0263,-0.0263,-0.0261,-0.026,-0.0259,-0.0259,-0.0319,-0.0321,-0.0323,0,0,0,0,0,0,0,0,0,0,0,0,0,-0.0161,-0.0162,-0.0215,-0.0215,-0.0216,-0.0262,-0.0263,-0.0263,-0.0261,-0.026,-0.0259,-0.0258,-0.0318,-0.0321,-0.0323,0,0,0,0,0,0,0,0,0,0,0,0,0,-0.0195,-0.0162,-0.0214,-0.0219,-0.022,-0.0262,-0.0263,-0.0264,-0.0261,-0.026,-0.0259,-0.0258,-0.0317,-0.032,-0.0324,-0.0368,0,0,-0.0334,-0.0336,0,0,0,0,0,0,0,0,-0.0193,-0.0197,-0.0218,-0.0219,-0.022,-0.0254,-0.0266,-0.0299,-0.0262,-0.0247,-0.0259,-0.0257,-0.0298,-0.0303,-0.0316,-0.0371,-0.0373,-0.0335,-0.0337,-0.0338,-0.0339,0,0,0,0,0,0,0,-0.0191,-0.0195,-0.0234,-0.0219,-0.022,-0.0233,-0.0236,-0.0272,-0.0279,-0.0248,-0.0248,-0.0252,-0.0299,-0.0313,-0.0317,-0.0374,-0.0335,-0.0338,-0.034,-0.0341,-0.0467,-0.0468,0,0,0,0,0,0,-0.0182,-0.0193,-0.0233,-0.0236,-0.0203,-0.0234,-0.0238,-0.0245,-0.0279,-0.0282,-0.0253,-0.0252,-0.0307,-0.0313,-0.0319,-0.0359,-0.0338,-0.0341,-0.0343,-0.0466,-0.0467,-0.0469,0,0,0,0,0,0,-0.0181,-0.0186,-0.0231,-0.0214,-0.0221,-0.0236,-0.0244,-0.0246,-0.0255,-0.0282,-0.0286,-0.0258,-0.0307,-0.0314,-0.0357,-0.0361,-0.0343,-0.0346,-0.0464,-0.0466,-0.0468,-0.0447,0,0,0,0,0,0,-0.018,-0.0185,-0.0189,-0.0214,-0.0221,-0.0253,-0.0245,-0.0248,-0.026,-0.0258,-0.0289,-0.0293,-0.0306,-0.0352,-0.0361,-0.0366,-0.0349,-0.0463,-0.0465,-0.0468,-0.0446,-0.0448,-0.045,0,0,0,0,0,-0.0177,-0.0191,-0.0189,-0.0194,-0.0226,-0.0254,-0.0259,-0.0266,-0.0261,-0.027,-0.0294,-0.0292,-0.0373,-0.0356,-0.0366,-0.0372,-0.0462,-0.0465,-0.0467,-0.0445,-0.0448,-0.045,0,0,0,0,0,0,-0.0172,-0.0192,-0.0191,-0.0209,-0.0227,-0.0253,-0.0264,-0.0269,-0.0296,-0.0292,-0.0314,-0.0322,-0.0359,-0.0379,-0.0359,-0.0418,-0.0415,-0.042,-0.0395,-0.0398,-0.0399,-0.0364,-0.0352,0,0,0,0,0,-0.0172,-0.0187,-0.0205,-0.0221,-0.0228,-0.0246,-0.0258,-0.0261,-0.0286,-0.0296,-0.0315,-0.0345,-0.0382,-0.0398,-0.0431,-0.0469,-0.0469,-0.0479,-0.0481,-0.0482,-0.0463,-0.0488,-0.0489,-0.0478,-0.0478,-0.0478,0,0,-0.0177,-0.0189,-0.0198,-0.0221,-0.0235,-0.0245,-0.025,-0.0267,-0.0274,-0.0301,-0.0321,-0.0353,-0.0395,-0.0432,-0.045,-0.0446,-0.0486,-0.0486,-0.0486,-0.0466,-0.0491,-0.0492,-0.0492,-0.048,-0.048,-0.048,0,0,-0.0189,-0.0201,-0.0212,-0.0222,-0.0237,-0.0249,-0.0252,-0.0273,-0.028,-0.0309,-0.0331,-0.0366,-0.0415,-0.0444,-0.0466,-0.0503,-0.0496,-0.0516,-0.0492,-0.0518,-0.0518,-0.0518,-0.0512,-0.0512,-0.0514,-0.0514,-0.0514,0,-0.0193,-0.0201,-0.0221,-0.0227,-0.0228,-0.0248,-0.0249,-0.027,-0.03,-0.0308,-0.0309,-0.038,-0.0417,-0.0463,-0.0472,-0.0503,-0.0503,-0.0477,-0.0517,-0.0517,-0.0517,-0.0511,-0.0511,-0.0513,-0.0513,-0.0513,-0.0513,0,-0.0209,-0.0207,-0.0216,-0.0224,-0.0233,-0.0241,-0.0258,-0.027,-0.0278,-0.0293,-0.0329,-0.0379,-0.0411,-0.0441,-0.0465,-0.0495,-0.0489,-0.0515,-0.0501,-0.0517,-0.051,-0.051,-0.0512,-0.0512,-0.0513,-0.0513,0,0,-0.024,-0.0226,-0.0228,-0.0211,-0.0225,-0.0231,-0.0246,-0.0263,-0.0261,-0.0296,-0.0297,-0.037,-0.0379,-0.0406,-0.0446,-0.0472,-0.0482,-0.0486,-0.0488,-0.046,-0.051,-0.044,-0.0433,-0.0513,-0.0513,-0.0513,-0.0499,0,-0.0243,-0.0227,-0.0229,-0.0216,-0.0206,-0.0215,-0.0221,-0.0237,-0.0253,-0.0263,-0.0313,-0.0332,-0.0373,-0.0379,-0.0415,-0.0467,-0.0483,-0.0481,-0.0515,-0.0515,-0.0436,-0.0432,-0.0452,-0.0436,-0.05,-0.05,-0.05,0,-0.0259,-0.024,-0.0212,-0.0182,-0.0179,-0.0172,-0.0168,-0.0175,-0.0202,-0.0209,-0.0236,-0.0268,-0.0311,-0.034,-0.0412,-0.0406,-0.0445,-0.0485,-0.0486,-0.0422,-0.0445,-0.0436,-0.0434,-0.05,-0.05,-0.05,-0.05,0,-0.0256,-0.0232,-0.0198,-0.0189,-0.0165,-0.0149,-0.0139,-0.0153,-0.0146,-0.0163,-0.0151,-0.0214,-0.0223,-0.0294,-0.0361,-0.0386,-0.0425,-0.0477,-0.045,-0.0445,-0.0467,-0.0462,-0.0518,-0.0518,-0.0518,-0.0518,-0.0518,0,-0.0253,-0.0227,-0.0183,-0.0163,-0.0119,-0.0115,-0.0079,-0.008,-0.0076,-0.0054,-0.0108,-0.0095,-0.021,-0.0248,-0.0328,-0.0363,-0.0396,-0.0424,-0.0434,-0.0459,-0.0455,-0.0519,-0.052,-0.0517,-0.0517,-0.0517,-0.0517,0,-0.0234,-0.0216,-0.0169,-0.0126,-0.0109,-0.0069,-0.0022,0.0003,0.0004,0.0036,0.0041,-0.0,-0.0031,-0.0132,-0.0232,-0.0294,-0.0357,-0.0364,-0.0359,-0.0368,-0.0371,-0.0371,-0.0337,-0.0334,-0.0332,-0.033,-0.0328,0,-0.0199,-0.0176,-0.0126,-0.0085,-0.0052,0.0002,0.0041,0.0048,0.0078,0.0103,0.0128,0.0112,0.0116,0.0018,-0.0089,-0.0183,-0.0262,-0.0276,-0.0333,-0.0337,-0.0351,-0.0355,-0.0358,-0.0364,-0.0363,-0.0362,-0.0361,0,-0.0119,-0.0114,-0.0075,-0.0006,0.0048,0.01,0.0157,0.0179,0.0197,0.0237,0.0295,0.0305,0.0235,0.0126,0.0003,-0.0072,-0.0264,-0.0255,-0.0279,-0.0387,-0.0357,-0.0372,-0.0376,-0.0353,-0.0354,-0.0354,-0.0355,-0.0355,-0.004,-0.0002,0.004,0.0102,0.0153,0.0211,0.026,0.0308,0.037,0.0433,0.0425,0.0417,0.0208,0.0067,-0.002,-0.0102,-0.0115,-0.0239,-0.0246,-0.0253,-0.0239,-0.0204,-0.0168,-0.0168,-0.0167,-0.0167,-0.0167,0,0.0087,0.0106,0.016,0.0227,0.0283,0.0291,0.0353,0.0396,0.0484,0.05,0.0564,0.033,0.022,0.0044,-0.0049,-0.0126,-0.0162,-0.0182,-0.0266,-0.0273,-0.028,-0.0271,-0.0207,-0.0207,-0.0207,-0.0207,0,0,0.0168,0.0229,0.0231,0.0339,0.0384,0.0467,0.0504,0.0557,0.056,0.055,0.0499,0.0435,0.0171,0.0032,-0.0089,-0.0125,-0.0165,-0.0124,-0.0089,-0.0179,-0.0184,-0.0314,-0.0306,0,0,0,0,0]}],[{"header":{"parameterUnit":"m.s-1","parameterCategory":2,"la1":30.2991,"la2":30.254,"lo1":-89.0895,"lo2":-89.0444,"dy":0.0017,"dx":0.0017,"nx":28,"ny":28,"refTime":"2024-02-01T03:00:00:Z","depth":"4","parameterNumber":2,"parameterNumberName":"U-component_of_CURRENTS"},"data":[0,0,0,0,0,0,0,0,0,0,0,0,0,0,0,0,0,0,0,0,0,0,0,0,0,0,0,0,0,0,0,0,0,0,0,0,0,0,0,0,0,0,0,0,0,0,0,0,0,0,0,0,0,0,0,0,0,0,-0.0257,-0.0257,0,-0.0268,-0.0268,-0.0268,-0.0247,-0.0247,-0.0246,-0.0246,-0.0246,-0.0247,-0.0247,0,0,0,0,0,0,0,0,0,0,0,0,0,-0.024,-0.024,-0.0257,-0.0257,-0.0257,-0.0268,-0.0268,-0.0268,-0.0248,-0.0247,-0.0246,-0.0245,-0.0246,-0.0247,-0.0247,0,0,0,0,0,0,0,0,0,0,0,0,0,-0.0248,-0.024,-0.0257,-0.0248,-0.0248,-0.0268,-0.0268,-0.0269,-0.0248,-0.0247,-0.0246,-0.0245,-0.0246,-0.0247,-0.0247,-0.0272,0,0,-0.025,-0.0251,0,0,0,0,0,0,0,0,-0.0247,-0.0248,-0.0249,-0.0249,-0.0248,-0.0256,-0.0263,-0.0269,-0.0248,-0.0247,-0.0246,-0.0244,-0.025,-0.025,-0.0254,-0.0272,-0.0272,-0.025,-0.0251,-0.0251,-0.0251,0,0,0,0,0,0,0,-0.0247,-0.0248,-0.026,-0.025,-0.0249,-0.0252,-0.0252,-0.0264,-0.0253,-0.0247,-0.0246,-0.0249,-0.0249,-0.0253,-0.0253,-0.0272,-0.025,-0.0251,-0.0252,-0.0252,-0.0291,-0.0292,0,0,0,0,0,0,-0.0247,-0.0247,-0.026,-0.0261,-0.0246,-0.0253,-0.0253,-0.0254,-0.0253,-0.0252,-0.0249,-0.0248,-0.0252,-0.0252,-0.0253,-0.025,-0.0251,-0.0252,-0.0253,-0.0291,-0.0291,-0.0292,0,0,0,0,0,0,-0.0246,-0.0248,-0.026,-0.0255,-0.0257,-0.0255,-0.0256,-0.0255,-0.025,-0.0255,-0.0253,-0.0244,-0.0251,-0.0252,-0.0257,-0.025,-0.0252,-0.0253,-0.029,-0.0291,-0.0292,-0.0263,0,0,0,0,0,0,-0.0246,-0.0248,-0.0253,-0.0255,-0.0257,-0.0267,-0.0257,-0.0256,-0.0254,-0.0251,-0.025,-0.025,-0.025,-0.0256,-0.0258,-0.0252,-0.0254,-0.0289,-0.029,-0.0291,-0.0263,-0.0263,-0.0262,0,0,0,0,0,-0.0245,-0.0258,-0.0254,-0.0255,-0.0263,-0.0267,-0.0269,-0.0263,-0.0254,-0.0255,-0.0253,-0.0249,-0.0263,-0.0257,-0.026,-0.0253,-0.0289,-0.029,-0.0291,-0.0264,-0.0263,-0.0262,0,0,0,0,0,0,-0.0265,-0.0257,-0.0252,-0.0265,-0.0263,-0.0264,-0.027,-0.0262,-0.0262,-0.0257,-0.0256,-0.0256,-0.026,-0.0267,-0.026,-0.027,-0.0276,-0.0278,-0.0254,-0.0254,-0.0253,-0.0242,-0.0255,0,0,0,0,0,-0.027,-0.0272,-0.0266,-0.0279,-0.0275,-0.0271,-0.0273,-0.0265,-0.0264,-0.0262,-0.0258,-0.0261,-0.027,-0.0268,-0.0279,-0.0284,-0.0283,-0.0284,-0.0283,-0.0282,-0.0277,-0.0283,-0.0281,-0.0295,-0.0295,-0.0295,0,0,-0.0285,-0.0281,-0.0285,-0.0283,-0.0281,-0.0273,-0.0269,-0.0269,-0.0262,-0.0264,-0.0255,-0.0261,-0.0274,-0.0277,-0.0279,-0.0277,-0.0276,-0.0284,-0.0283,-0.0277,-0.0284,-0.0282,-0.0281,-0.0296,-0.0296,-0.0296,0,0,-0.0305,-0.0307,-0.0305,-0.0298,-0.0289,-0.0283,-0.0279,-0.0268,-0.0262,-0.0258,-0.026,-0.0263,-0.0268,-0.0275,-0.0281,-0.0288,-0.0277,-0.0288,-0.0267,-0.0273,-0.0271,-0.027,-0.0252,-0.0249,-0.0281,-0.0281,-0.0281,0,-0.0323,-0.0312,-0.0309,-0.0298,-0.029,-0.0283,-0.0271,-0.0271,-0.0262,-0.0259,-0.0251,-0.0262,-0.027,-0.0279,-0.0273,-0.0286,-0.0274,-0.0264,-0.027,-0.0269,-0.0268,-0.025,-0.0247,-0.028,-0.028,-0.028,-0.028,0,-0.0327,-0.0317,-0.0317,-0.0294,-0.029,-0.0282,-0.0271,-0.0265,-0.0252,-0.0248,-0.0249,-0.0258,-0.0257,-0.0265,-0.0265,-0.0264,-0.0252,-0.0271,-0.0266,-0.0264,-0.0246,-0.0244,-0.0278,-0.0278,-0.0279,-0.0279,0,0,-0.0357,-0.0325,-0.0321,-0.03,-0.028,-0.0273,-0.0268,-0.0256,-0.0249,-0.0243,-0.0234,-0.0246,-0.0237,-0.0244,-0.0249,-0.025,-0.0228,-0.0243,-0.0244,-0.0214,-0.0212,-0.021,-0.0207,-0.0238,-0.0238,-0.0237,-0.0196,0,-0.0353,-0.0326,-0.0313,-0.0286,-0.0264,-0.0255,-0.025,-0.0242,-0.0237,-0.0229,-0.024,-0.0232,-0.0234,-0.0221,-0.0225,-0.0235,-0.0222,-0.0236,-0.0228,-0.0227,-0.0217,-0.0206,-0.0237,-0.0194,-0.0194,-0.0193,-0.0193,0,-0.0344,-0.0322,-0.0293,-0.0259,-0.0251,-0.0237,-0.0219,-0.0212,-0.0213,-0.0206,-0.0201,-0.0203,-0.0199,-0.0202,-0.0203,-0.0204,-0.0194,-0.0203,-0.0202,-0.0209,-0.0222,-0.0202,-0.0189,-0.0189,-0.019,-0.019,-0.019,0,-0.0337,-0.0303,-0.0277,-0.0264,-0.0234,-0.022,-0.0204,-0.02,-0.0192,-0.018,-0.017,-0.0174,-0.0165,-0.0167,-0.018,-0.0175,-0.0188,-0.0191,-0.0178,-0.0177,-0.0203,-0.0205,-0.018,-0.018,-0.0181,-0.0181,-0.0181,0,-0.032,-0.03,-0.0267,-0.0248,-0.0217,-0.02,-0.0176,-0.0167,-0.0156,-0.0154,-0.0145,-0.0159,-0.0152,-0.0166,-0.0171,-0.0172,-0.0178,-0.0165,-0.0169,-0.0191,-0.0192,-0.02,-0.0202,-0.0179,-0.0179,-0.018,-0.018,0,-0.0312,-0.0292,-0.0259,-0.0222,-0.0208,-0.0183,-0.0149,-0.0139,-0.0124,-0.0121,-0.0108,-0.0127,-0.0141,-0.0148,-0.0161,-0.0155,-0.0166,-0.0164,-0.0173,-0.018,-0.0141,-0.0143,-0.0117,-0.0117,-0.0116,-0.0116,-0.0116,0,-0.0297,-0.0285,-0.0244,-0.0218,-0.0196,-0.0159,-0.014,-0.0118,-0.0113,-0.0125,-0.0131,-0.0134,-0.0148,-0.0156,-0.0178,-0.0165,-0.0169,-0.0144,-0.0142,-0.013,-0.0136,-0.0138,-0.0141,-0.0116,-0.0115,-0.0115,-0.0115,0,-0.0284,-0.0283,-0.0261,-0.0208,-0.0175,-0.0146,-0.0118,-0.0103,-0.0096,-0.0098,-0.0122,-0.0125,-0.0145,-0.016,-0.0142,-0.0152,-0.0146,-0.014,-0.014,-0.0138,-0.0127,-0.0134,-0.0137,-0.0114,-0.0114,-0.0115,-0.0115,0,-0.0286,-0.0273,-0.0249,-0.0203,-0.0162,-0.0127,-0.0112,-0.0099,-0.0087,-0.0089,-0.0121,-0.0144,-0.0163,-0.0158,-0.0175,-0.015,-0.0132,-0.0102,-0.0104,-0.0105,-0.0124,-0.0111,-0.0086,0,0,0,0,0,-0.0282,-0.0278,-0.0239,-0.0183,-0.0143,-0.0122,-0.01,-0.0094,-0.0093,-0.0093,-0.009,-0.0115,-0.0117,-0.0154,-0.0121,-0.0168,-0.0133,-0.013,-0.01,-0.0108,-0.011,-0.0136,0,0,0,0,0,0,-0.0278,-0.0268,-0.0246,-0.018,-0.0137,-0.0098,-0.0081,-0.0084,-0.008,-0.0085,-0.0094,-0.0099,-0.0115,-0.0131,-0.0122,-0.0123,-0.0095,-0.0142,-0.014,-0.0108,-0.0109,-0.011,-0.0137,0,0,0,0,0]},{"header":{"parameterUnit":"m.s-1","parameterCategory":2,"la1":30.2991,"la2":30.254,"lo1":-89.0895,"lo2":-89.0444,"dy":0.0017,"dx":0.0017,"nx":28,"ny":28,"refTime":"2024-02-01T03:00:00:Z","depth":"4","parameterNumber":3,"parameterNumberName":"V-component_of_CURRENTS"},"data":[0,0,0,0,0,0,0,0,0,0,0,0,0,0,0,0,0,0,0,0,0,0,0,0,0,0,0,0,0,0,0,0,0,0,0,0,0,0,0,0,0,0,0,0,0,0,0,0,0,0,0,0,0,0,0,0,0,0,0.009,0.0091,0,0.0141,0.0142,0.0142,0.0114,0.0113,0.0112,0.0111,0.0071,0.0071,0.0071,0,0,0,0,0,0,0,0,0,0,0,0,0,0.0003,0.0005,0.009,0.0091,0.0092,0.0141,0.0142,0.0142,0.0115,0.0113,0.0112,0.011,0.0071,0.0071,0.0071,0,0,0,0,0,0,0,0,0,0,0,0,0,0.0045,0.0005,0.009,0.0085,0.0085,0.0141,0.0142,0.0143,0.0115,0.0113,0.0111,0.0109,0.0071,0.0071,0.0071,0.011,0,0,0.0071,0.0072,0,0,0,0,0,0,0,0,0.0043,0.0048,0.0085,0.0085,0.0086,0.0121,0.0097,0.0128,0.0115,0.0102,0.0111,0.0108,0.0081,0.0081,0.0094,0.0108,0.0106,0.0072,0.0072,0.0072,0.0072,0,0,0,0,0,0,0,0.004,0.0046,0.0109,0.0086,0.0086,0.0092,0.0096,0.0103,0.0099,0.0103,0.0102,0.011,0.008,0.0094,0.0092,0.0106,0.0072,0.0072,0.0072,0.0072,0.0061,0.0061,0,0,0,0,0,0,0.0037,0.0043,0.0107,0.0111,0.0061,0.0095,0.0099,0.011,0.0101,0.0099,0.0112,0.0109,0.0094,0.0092,0.0091,0.0049,0.0072,0.0072,0.0072,0.0062,0.0061,0.0061,0,0,0,0,0,0,0.0035,0.0042,0.0105,0.0079,0.0087,0.0099,0.0112,0.0112,0.0101,0.0109,0.0104,0.0097,0.0093,0.009,0.0082,0.005,0.0072,0.0072,0.0062,0.0061,0.0061,0.0021,0,0,0,0,0,0,0.0032,0.0042,0.0035,0.0079,0.0089,0.0123,0.0114,0.0115,0.0112,0.0108,0.0096,0.0091,0.0091,0.0082,0.0082,0.0051,0.0072,0.0062,0.0062,0.0061,0.0023,0.0019,0.0016,0,0,0,0,0,0.0029,0.0039,0.0035,0.0042,0.0085,0.0123,0.0128,0.0129,0.0113,0.0111,0.0102,0.009,0.0076,0.0082,0.0082,0.005,0.0063,0.0062,0.0061,0.0024,0.002,0.0016,0,0,0,0,0,0,-0.0006,0.0039,0.0035,0.0054,0.0076,0.0118,0.0117,0.0121,0.0116,0.0098,0.0098,0.0095,0.0072,0.0076,0.0083,0.0046,0.0063,0.0062,0.0034,0.003,0.0027,0.0016,0.0072,0,0,0,0,0,-0.0014,0.0004,0.0041,0.0053,0.0061,0.0083,0.0093,0.0095,0.0107,0.0101,0.0096,0.0084,0.0076,0.0064,0.0063,0.0053,0.0065,0.0029,0.0026,0.0023,0.0015,0.0018,0.0014,0.0058,0.0058,0.0058,0,0,-0.0021,0.0002,0.0012,0.0046,0.0059,0.0074,0.0083,0.0093,0.0094,0.0098,0.0083,0.0076,0.0073,0.0056,0.0044,0.0049,0.002,0.0022,0.0019,0.0013,0.0017,0.0013,0.0009,0.0057,0.0057,0.0057,0,0,-0.0017,-0.0012,0.0004,0.0016,0.0035,0.0054,0.0052,0.0078,0.007,0.007,0.0063,0.0042,0.0037,0.0027,0.0021,0.0003,0.0006,-0.001,-0.0043,-0.004,-0.0044,-0.0047,-0.0025,-0.0026,-0.0017,-0.0017,-0.0017,0,-0.0033,-0.001,0.0013,0.0022,0.0025,0.0041,0.0046,0.0054,0.007,0.0057,0.0052,0.0027,0.0024,-0.0003,-0.0017,-0.0008,0.0,-0.0029,-0.0045,-0.0048,-0.0051,-0.0028,-0.0029,-0.0019,-0.0019,-0.0019,-0.0019,0,-0.0009,-0.0011,-0.0004,0.0013,0.0018,0.0026,0.0039,0.0031,0.0019,0.0022,-0.0011,-0.0011,-0.0033,-0.0041,-0.0038,-0.0068,-0.0053,-0.0046,-0.0037,-0.0058,-0.0032,-0.0032,-0.0022,-0.0021,-0.0021,-0.002,0,0,0.0019,0.0014,0.0014,-0.0002,0.0007,0.0017,0.0006,0.0006,-0.0016,-0.0023,-0.0051,-0.0071,-0.0088,-0.0094,-0.0099,-0.0104,-0.011,-0.0093,-0.0092,-0.0075,-0.0096,-0.0121,-0.0123,-0.0112,-0.0112,-0.0112,-0.0066,0,0.0028,0.0027,0.0028,0.0014,0.0011,-0.0001,-0.0012,-0.0023,-0.0036,-0.0058,-0.0078,-0.0102,-0.0102,-0.0126,-0.0132,-0.0119,-0.0114,-0.0123,-0.0075,-0.0074,-0.0097,-0.0126,-0.0114,-0.0066,-0.0066,-0.0066,-0.0066,0,0.0059,0.0049,0.003,-0.0007,-0.0011,-0.0024,-0.0061,-0.0067,-0.0095,-0.0111,-0.0145,-0.0152,-0.0175,-0.0164,-0.0157,-0.0167,-0.0138,-0.0118,-0.0116,-0.0129,-0.01,-0.0043,-0.0066,-0.0066,-0.0066,-0.0066,-0.0066,0,0.007,0.0051,0.0026,0.0016,-0.0017,-0.0047,-0.0065,-0.0096,-0.0108,-0.0148,-0.0163,-0.0193,-0.0203,-0.019,-0.0156,-0.0163,-0.0127,-0.0124,-0.0111,-0.0111,-0.0081,-0.0078,-0.0105,-0.0105,-0.0105,-0.0105,-0.0105,0,0.0081,0.0061,0.0018,0.0001,-0.0041,-0.0063,-0.0107,-0.0131,-0.0158,-0.0174,-0.0196,-0.021,-0.0211,-0.019,-0.0163,-0.0141,-0.0128,-0.0126,-0.0112,-0.0096,-0.0096,-0.008,-0.0078,-0.0103,-0.0103,-0.0104,-0.0104,0,0.0079,0.0061,0.0027,-0.0023,-0.0042,-0.008,-0.0125,-0.0147,-0.0173,-0.0192,-0.0204,-0.0219,-0.0215,-0.0188,-0.0156,-0.0146,-0.0117,-0.0097,-0.007,-0.0052,-0.01,-0.01,-0.0108,-0.0108,-0.0109,-0.011,-0.011,0,0.0061,0.0048,0.0,-0.0026,-0.0061,-0.0109,-0.0137,-0.0161,-0.0172,-0.0192,-0.0195,-0.0204,-0.021,-0.0181,-0.0163,-0.012,-0.0109,-0.0088,-0.0123,-0.0121,-0.0105,-0.0104,-0.0104,-0.0111,-0.0111,-0.0111,-0.0112,0,0.0021,0.0012,-0.002,-0.0061,-0.01,-0.0127,-0.0164,-0.0167,-0.0183,-0.0187,-0.02,-0.0209,-0.0202,-0.0199,-0.016,-0.0126,-0.0114,-0.0095,-0.0094,-0.0127,-0.0125,-0.0109,-0.0107,-0.0114,-0.0113,-0.0113,-0.0113,0,-0.0024,-0.0046,-0.0074,-0.0109,-0.0138,-0.0156,-0.0168,-0.0183,-0.0191,-0.0197,-0.0198,-0.0204,-0.0204,-0.0199,-0.016,-0.0145,-0.0155,-0.015,-0.0146,-0.0143,-0.018,-0.0184,-0.019,0,0,0,0,0,-0.0076,-0.0089,-0.0121,-0.015,-0.0165,-0.0178,-0.0189,-0.0188,-0.0182,-0.0193,-0.0198,-0.0194,-0.0195,-0.0195,-0.0188,-0.0177,-0.0148,-0.0169,-0.0139,-0.0126,-0.0124,-0.0165,0,0,0,0,0,0,-0.0113,-0.0142,-0.0132,-0.0168,-0.0186,-0.0203,-0.021,-0.0203,-0.0205,-0.0201,-0.0199,-0.0196,-0.019,-0.0198,-0.0189,-0.0186,-0.0168,-0.0163,-0.0164,-0.0128,-0.0125,-0.0123,-0.0165,0,0,0,0,0]}]]